Weather History for HECA - October, 2013

Change the Weather History Date:

Tuesday, October 8, 2013

  Actual Average (WUND) Record (WUND)
Temperature  
Mean Temperature 71 °F -  
Max Temperature 81 °F 81 °F - (-1)
Min Temperature 61 °F 62 °F - (-1)
Cooling Degree Days 6    
Growing Degree Days 21 (Base 50)    
Moisture  
Dew Point 50 °F    
Average Humidity 50    
Maximum Humidity 68    
Minimum Humidity 23    
Precipitation  
Precipitation 0.00 in 0.00 in - ()
Sea Level Pressure  
Sea Level Pressure 30.07 in    
Wind  
Wind Speed 14 mph ()    
Max Wind Speed 23 mph    
Max Gust Speed -    
Visibility 5.5 miles    
Events      
Averages and records for this station are not official NWS values.
T = Trace of Precipitation, MM = Missing Value Source: Averaged Metar Reports

Daily Weather History Graph

Daily Weather History Graph

Search for Another Location

Airport or City:

Trip Planner

Search our weather history database for the weather conditions in past years. The results will help you decide how hot, cold, wet, or windy it might be!

Date:

Astronomy

Oct. 08, 2013 Rise Set
Actual Time 5:51 AM EET 5:31 PM EET
Civil Twilight 5:27 AM EET 5:55 PM EET
Nautical Twilight 5:00 AM EET 6:23 PM EET
Astronomical Twilight 4:32 AM EET 6:50 PM EET
Moon 9:09 AM EET (10/8) 8:05 PM EET (10/8)
Length of Visible Light 12h 27m
Length of Day
11h 39m
Waxing Crescent, 14% of the Moon is Illuminated
Oct 8
Waxing Crescent
Oct 12
First Quarter
Oct 19
Full
Oct 27
Last Quarter
Nov 3
New

Hourly Weather History & Observations

Time (EET) Temp. Dew Point Humidity Pressure Visibility Wind Dir Wind Speed Gust Speed Precip Events Conditions
12:00 AM 66.2 °F 50.0 °F 56% 30.12 in - NNE 13.8 mph - N/A   Clear
12:30 AM 66.2 °F 50.0 °F 56% 30.12 in - NNE 13.8 mph - N/A   Clear
1:00 AM 64.4 °F 50.0 °F 59% 30.12 in - NNE 11.5 mph - N/A   Clear
1:30 AM 64.4 °F 50.0 °F 59% 30.12 in - NNE 11.5 mph - N/A   Clear
2:00 AM 63 °F 50 °F 53% 30.12 in 6 mi NNE 10.4 mph - -  
2:00 AM 62.6 °F 50.0 °F 63% 30.09 in - NNE 10.4 mph - N/A   Clear
2:30 AM 62.6 °F 50.0 °F 63% 30.09 in - NNE 10.4 mph - N/A   Clear
3:00 AM 62.6 °F 50.0 °F 63% 30.09 in - NE 9.2 mph - N/A   Clear
3:30 AM 62.6 °F 50.0 °F 63% 30.09 in - NNE 9.2 mph - N/A   Clear
4:00 AM 60.8 °F 50.0 °F 68% 30.09 in - NE 10.4 mph - N/A   Clear
4:30 AM 60.8 °F 50.0 °F 68% 30.09 in - NE 11.5 mph - N/A   Clear
5:00 AM 60.8 °F 50.0 °F 68% 30.09 in - NE 11.5 mph - N/A   Clear
5:30 AM 60.8 °F 50.0 °F 68% 30.09 in - NE 10.4 mph - N/A   Clear
6:00 AM 60.8 °F 50.0 °F 68% 30.09 in - NNE 10.4 mph - N/A   Clear
6:30 AM 62.6 °F 50.0 °F 63% 30.09 in - NE 11.5 mph - N/A   Clear
7:00 AM 62.6 °F 50.0 °F 63% 30.09 in - NE 11.5 mph - N/A   Clear
7:30 AM 64.4 °F 50.0 °F 59% 30.09 in - NNE 15.0 mph - N/A   Clear
8:00 AM 65 °F 51 °F 51% 30.12 in 6 mi NNE 13.8 mph - -  
8:00 AM 66.2 °F 51.8 °F 60% 30.12 in - NNE 13.8 mph - N/A   Clear
8:30 AM 68.0 °F 51.8 °F 56% 30.12 in - NNE 13.8 mph - N/A   Clear
9:00 AM 69.8 °F 51.8 °F 53% 30.12 in - NNE 13.8 mph - N/A   Clear
9:30 AM 73.4 °F 50.0 °F 44% 30.12 in - NNE 19.6 mph - N/A   Clear
10:00 AM 73.4 °F 51.8 °F 47% 30.09 in 6.2 mi NNE 23.0 mph - N/A   Partly Cloudy
10:30 AM 75.2 °F 51.8 °F 44% 30.09 in 6.2 mi NE 23.0 mph - N/A   Partly Cloudy
11:00 AM 77.0 °F 51.8 °F 41% 30.09 in - NNE 23.0 mph - N/A   Clear
11:30 AM 77.0 °F 51.8 °F 41% 30.06 in - NNE 23.0 mph - N/A   Clear
12:00 PM 78.8 °F 51.8 °F 39% 30.06 in - NNE 23.0 mph - N/A   Clear
12:30 PM 78.8 °F 51.8 °F 39% 30.06 in - North 19.6 mph - N/A   Clear
1:00 PM 80.6 °F 50.0 °F 34% 30.04 in - NNE 23.0 mph - N/A   Clear
1:30 PM 80.6 °F 50.0 °F 34% 30.04 in - NNE 23.0 mph - N/A   Clear
2:00 PM 80 °F 49 °F 23% 30.02 in 6 mi NNE 21.9 mph - -  
2:00 PM 80.6 °F 48.2 °F 32% 30.01 in - NNE 21.9 mph - N/A   Clear
2:30 PM 80.6 °F 48.2 °F 32% 30.01 in - NNE 21.9 mph - N/A   Clear
3:00 PM 80.6 °F 48.2 °F 32% 30.01 in - NNE 21.9 mph - N/A   Clear
3:30 PM 80.6 °F 46.4 °F 30% 30.01 in - NNE 21.9 mph - N/A   Clear
4:00 PM 78.8 °F 44.6 °F 30% 30.01 in - NNE 21.9 mph - N/A   Clear
4:30 PM 78.8 °F 42.8 °F 28% 30.04 in - NNE 20.7 mph - N/A   Clear
5:00 PM 77.0 °F 44.6 °F 32% 30.04 in - NNE 19.6 mph - N/A   Clear
5:30 PM 75.2 °F 44.6 °F 34% 30.04 in - NNE 21.9 mph - N/A   Clear
6:00 PM 75.2 °F 46.4 °F 36% 30.04 in - NNE 20.7 mph - N/A   Clear
6:30 PM 73.4 °F 46.4 °F 38% 30.04 in - NNE 18.4 mph - N/A   Clear
7:00 PM 73.4 °F 48.2 °F 41% 30.06 in - NNE 18.4 mph - N/A   Clear
7:30 PM 71.6 °F 51.8 °F 50% 30.06 in - North 17.3 mph - N/A   Clear
8:00 PM 71 °F 54 °F 44% 30.07 in 6 mi NNE 16.1 mph - -  
8:00 PM 71.6 °F 53.6 °F 53% 30.06 in - NNE 16.1 mph - N/A   Clear
8:30 PM 69.8 °F 53.6 °F 56% 30.06 in - NNE 16.1 mph - N/A   Clear
9:00 PM 69.8 °F 53.6 °F 56% 30.06 in - NNE 17.3 mph - N/A   Clear
9:30 PM 69.8 °F 53.6 °F 56% 30.06 in - NNE 17.3 mph - N/A   Clear
10:00 PM 69.8 °F 55.4 °F 60% 30.06 in - North 15.0 mph - N/A   Clear
10:30 PM 68.0 °F 53.6 °F 60% 30.06 in - North 15.0 mph - N/A   Clear
11:00 PM 68.0 °F 53.6 °F 60% 30.06 in 3.7 mi North 13.8 mph - N/A   Unknown
11:30 PM 68.0 °F 53.6 °F 60% 30.06 in 3.7 mi North 5.8 mph - N/A   Unknown